Wind_Speed
7 6 8 8 9 10 12 13 14 11 13 16 18 20 19 19 21 14 5 9 15 21 17 18 11 15 4 3 3 3 3 4 4 4 5 5 3 2 2 6 2 5 3 0 31
6 7 8 8 8 10 12 13 12 11 12 15 17 19 20 20 15 10 10 14 18 15 8 8 5 12 4 3 2 4 5 9 6 4 4 4 3 3 5 5 4 2 2 16 30
5 6 8 8 8 10 11 12 13 12 11 13 16 19 21 13 2 4 16 18 17 14 7 5 6 2 3 2 3 4 7 6 5 6 4 3 3 5 2 3 7 13 11 19 26
6 7 9 9 9 11 12 12 13 14 16 16 16 18 18 6 3 4 15 19 14 12 9 7 3 2 3 4 4 4 6 8 8 7 5 3 2 3 7 7 7 9 18 22 22
7 8 9 10 11 12 13 12 13 14 14 15 15 18 9 5 3 10 18 17 12 13 13 6 3 4 8 4 4 8 5 8 11 8 6 3 8 8 7 11 7 11 17 22 21
10 10 11 11 12 13 14 14 13 13 14 13 13 14 5 4 4 12 17 18 13 8 9 5 4 8 7 7 9 6 9 15 11 11 6 5 6 8 7 4 4 10 16 18 22
10 10 11 11 11 13 14 15 14 14 14 13 10 9 2 6 8 10 15 17 12 6 2 4 4 3 10 6 8 8 15 15 14 8 7 3 11 7 9 3 9 10 10 14 17
10 11 10 10 11 13 15 17 16 15 13 10 9 6 4 5 11 11 14 13 11 9 7 6 3 3 3 7 7 5 6 16 8 11 7 8 26 5 5 7 10 12 11 12 16
9 8 8 9 10 12 16 17 18 9 5 3 2 2 6 12 6 17 13 15 14 3 5 9 3 4 3 3 7 10 14 14 13 12 8 18 12 13 9 10 10 12 14 14 12
7 6 6 7 8 12 15 16 4 2 4 3 2 1 4 6 16 22 12 8 5 6 5 1 3 3 3 5 13 13 14 11 11 3 17 21 16 6 8 11 13 13 12 13 16
6 5 4 5 7 11 15 3 7 5 7 0 5 3 6 19 9 8 9 6 2 2 3 3 1 5 8 8 8 13 19 17 8 5 7 15 20 16 9 10 12 12 13 14 16
5 3 2 2 4 8 8 6 3 1 6 3 4 5 10 6 5 7 3 3 2 3 1 3 7 13 9 4 7 9 13 22 18 8 3 12 13 10 16 16 14 16 15 15 12
5 5 3 0 2 6 13 6 2 1 1 5 3 3 7 2 4 6 1 1 2 3 2 6 10 1 7 11 12 13 13 8 15 7 8 6 11 14 14 13 11 13 14 14 16
6 6 4 1 1 3 3 5 2 1 4 6 4 1 5 4 4 6 3 3 2 4 5 9 6 9 12 13 8 14 8 15 14 12 18 11 12 9 18 23 10 13 14 16 15
8 6 4 1 4 2 3 4 2 1 4 7 7 5 10 2 7 3 5 1 5 5 2 9 4 5 10 13 11 8 10 10 13 11 6 9 6 6 7 16 23 14 17 14 16
10 7 5 4 4 2 4 3 1 5 4 6 4 8 9 4 3 6 4 1 3 4 6 17 6 5 8 6 7 6 9 9 11 7 7 14 11 7 12 19 20 20 16 19 15
11 9 3 3 1 3 3 3 5 5 4 9 5 6 7 5 7 4 6 6 2 6 4 5 4 3 3 2 7 8 6 4 6 6 5 6 14 16 8 17 23 26 22 16 15
12 8 9 6 3 1 2 5 6 2 5 4 4 8 4 6 4 5 6 6 4 5 5 5 7 6 3 2 4 1 9 7 7 3 1 6 8 5 5 8 14 24 16 16 15
13 9 5 5 3 2 5 5 6 6 4 5 7 6 6 4 2 6 3 3 4 5 4 5 6 2 5 4 3 4 9 7 2 1 3 4 5 6 8 7 9 16 17 16 15
11 5 3 4 2 2 5 2 2 4 1 2 2 2 4 5 5 6 5 3 5 2 7 5 7 4 1 4 7 5 7 3 4 5 4 3 3 3 11 11 11 16 16 14 12
6 3 2 1 2 4 3 5 4 5 4 3 2 3 5 4 2 4 4 7 1 6 9 5 4 10 3 5 1 5 3 5 3 3 3 2 1 2 10 13 4 9 12 14 14
5 2 3 2 4 1 2 5 4 3 3 4 3 5 4 4 4 3 4 5 7 5 10 4 5 6 9 5 3 4 5 4 3 4 1 3 1 7 13 7 8 8 10 11 12
3 1 3 1 3 1 4 2 2 3 3 3 3 4 2 3 4 4 4 6 7 5 5 8 3 7 9 4 2 4 3 5 6 2 0 1 4 9 10 7 7 10 9 11 12
3 2 3 4 0 6 4 3 2 4 3 3 3 2 2 4 5 5 4 6 8 4 14 6 4 4 7 13 5 7 6 4 4 2 2 3 4 8 8 5 7 9 9 10 11
3 3 2 2 2 4 3 5 2 2 4 3 2 6 4 4 4 4 3 7 5 8 8 7 5 5 13 15 6 5 7 5 4 4 4 1 5 8 9 5 4 7 9 11 12
5 4 2 2 2 5 2 4 6 4 4 4 4 2 5 6 7 4 3 3 4 7 8 7 4 8 5 7 9 6 7 4 4 4 1 2 3 3 4 4 4 7 8 8 9
6 4 4 6 4 4 4 5 6 4 4 5 6 2 6 10 6 6 5 5 7 6 4 5 5 4 4 7 13 4 5 5 3 3 3 3 1 2 4 3 3 7 9 10 11
Wind_Direction
5 11 9 3 7 8 9 7 2 3 360 355 352 348 346 340 334 348 19 341 331 312 302 322 347 349 311 264 195 158 111 193 220 185 266 346 229 190 94 133 216 190 152 257 160
343 357 358 356 356 360 360 3 10 9 1 352 350 346 341 338 345 39 17 350 353 354 338 3 350 344 315 253 229 169 170 203 205 187 233 268 217 289 164 155 229 183 43 137 150
348 348 352 357 350 351 353 356 1 2 358 349 346 345 343 337 19 30 357 358 352 356 338 322 297 262 241 216 220 199 222 203 223 216 214 248 249 160 261 222 207 196 165 160 162
353 344 343 349 347 346 347 346 351 354 351 347 345 344 350 3 82 7 359 355 7 5 17 0 357 283 251 219 228 237 230 205 228 217 173 225 292 245 190 256 320 167 158 162 172
333 333 334 337 339 342 342 338 337 340 344 343 344 347 2 15 276 350 344 351 347 1 27 359 288 275 258 271 267 243 235 233 236 229 214 210 231 227 223 240 348 138 156 172 178
307 313 316 322 329 333 335 333 329 328 331 338 342 342 28 26 351 340 353 0 359 345 348 17 350 319 297 263 268 309 258 243 233 241 213 198 249 157 257 137 134 175 178 174 177
307 304 302 305 314 322 329 331 326 322 322 326 335 346 34 229 340 353 353 351 356 332 305 302 332 356 341 295 344 287 274 272 248 244 215 141 258 200 224 178 170 195 204 182 178
299 296 304 303 306 315 323 326 320 315 311 310 316 344 258 317 323 350 335 340 350 330 281 281 279 242 205 298 314 279 251 251 222 220 224 183 247 195 181 170 209 184 195 191 190
283 292 299 301 307 316 325 324 319 319 321 298 291 47 291 326 342 323 312 311 320 274 277 267 227 200 269 223 270 243 257 249 253 211 205 210 250 219 175 193 221 201 199 195 186
287 283 295 307 313 325 330 322 8 44 31 68 79 58 311 307 320 314 324 297 293 313 328 119 182 190 239 201 238 244 258 254 264 280 212 228 235 224 182 189 207 209 202 195 199
276 271 284 305 331 341 345 8 20 357 36 157 274 248 288 313 307 322 329 318 326 13 1 318 329 232 231 245 283 272 273 269 265 338 350 258 254 224 204 201 218 215 199 197 208
244 238 237 302 355 5 30 69 80 178 318 308 252 258 274 298 305 294 305 344 20 282 308 336 250 238 230 251 273 305 282 269 278 262 253 293 288 318 240 210 205 216 214 203 194
205 194 183 261 25 37 67 63 357 171 241 301 270 279 287 295 285 281 277 236 256 300 236 253 248 6 232 233 242 259 281 279 266 254 222 260 278 273 257 207 201 208 211 209 198
177 173 161 150 92 36 59 4 356 174 65 309 344 29 348 293 270 270 247 238 268 282 308 269 254 226 239 248 222 255 276 264 256 254 251 183 271 243 227 219 209 203 188 190 179
163 161 143 80 108 64 328 337 349 129 26 310 307 315 328 10 300 296 312 153 237 237 190 264 280 255 221 232 206 253 228 265 287 249 233 199 237 218 169 229 212 209 208 192 180
160 150 125 94 79 31 342 338 33 42 270 334 317 355 352 348 293 304 322 319 247 279 237 260 246 260 209 202 198 271 256 235 254 231 232 221 211 217 209 209 224 210 208 194 166
160 153 126 87 100 345 353 41 33 106 324 313 336 345 330 301 314 349 310 321 304 323 327 288 230 244 158 263 198 199 227 198 231 208 228 248 197 242 206 213 214 199 191 172 153
157 149 102 80 29 34 33 49 72 226 249 308 323 313 337 341 289 316 323 345 320 287 293 319 330 174 142 224 307 176 241 230 239 232 260 259 224 210 292 265 228 194 160 141 150
153 130 97 30 38 36 71 52 195 195 232 342 329 33 322 335 344 335 310 303 303 348 339 296 275 279 178 140 157 359 219 229 234 275 236 229 256 250 338 309 139 145 145 147 146
151 116 63 8 45 71 73 223 145 202 130 45 306 133 308 295 341 5 334 279 305 320 344 270 275 237 109 196 219 198 305 198 206 181 236 254 277 357 316 328 158 154 156 145 139
135 72 11 17 87 49 129 215 223 233 222 179 240 282 262 296 283 289 262 289 283 308 324 288 287 288 330 216 159 218 258 256 226 243 142 238 210 165 291 293 251 147 139 136 139
122 65 359 165 52 2 130 186 204 234 214 233 252 254 265 262 267 273 258 230 348 318 314 301 287 287 242 188 226 200 269 232 256 197 301 242 359 12 315 280 125 105 115 117 121
103 146 359 60 129 288 310 281 227 230 222 204 244 213 220 274 290 220 275 278 326 334 318 349 316 306 339 5 275 287 250 283 310 265 274 347 12 352 334 53 96 115 113 120 122
104 100 335 48 170 128 139 254 256 223 258 254 242 164 237 264 227 286 292 293 325 286 313 305 273 255 309 308 304 288 300 311 290 349 312 47 313 328 3 50 93 103 112 117 117
56 230 197 176 233 123 130 161 159 268 219 211 275 226 199 279 283 239 283 298 309 2 345 352 288 314 303 296 305 284 283 289 327 0 37 30 11 338 358 37 70 102 114 121 123
135 138 88 125 131 113 202 227 193 264 207 232 212 194 205 243 217 280 270 268 269 329 346 336 285 311 276 304 327 306 343 350 343 309 70 44 33 283 47 40 125 131 122 122 126
137 116 105 150 157 131 217 196 213 178 234 233 210 226 245 254 242 246 229 247 261 298 312 301 330 316 293 316 309 348 340 343 325 297 339 20 115 249 106 123 248 162 161 158 152
Height
854 852 852 851 850 849 848 847 845 843 841 838 836 832 829 827 824 821 823 825 823 818 816 815 813 812 810 810 807 809 826 829 823 819 810 802 800 795 795 801 801 800 799 800 804
855 853 852 851 850 849 848 846 844 843 842 840 837 834 830 826 824 822 826 825 821 818 816 815 815 814 813 809 807 810 821 819 807 805 806 802 803 800 797 801 801 801 802 802 806
855 854 853 852 851 849 848 846 844 842 840 838 837 833 829 826 826 826 826 823 820 818 816 816 816 815 814 809 807 807 807 806 801 799 800 800 797 795 800 803 789 791 799 803 805
855 855 855 853 852 850 849 848 845 843 840 837 836 833 828 825 829 827 825 822 820 819 817 815 814 814 812 810 803 808 801 797 793 792 795 798 793 794 795 786 780 781 789 799 802
855 855 855 854 852 851 849 848 846 843 841 839 836 833 829 830 830 826 825 823 820 819 818 818 816 815 812 806 805 803 797 793 790 790 792 792 795 794 788 781 785 784 788 792 799
854 854 854 853 852 851 850 848 846 843 841 839 837 835 833 833 828 826 824 822 820 819 819 819 820 820 816 810 808 797 793 790 789 789 788 791 790 791 783 779 786 789 787 789 793
853 853 852 852 851 850 848 847 845 843 841 839 838 836 836 834 828 826 824 822 820 819 819 820 820 821 819 808 804 798 800 791 790 791 787 786 787 788 778 780 781 789 792 790 791
851 852 851 850 850 849 847 845 842 840 838 838 837 836 835 828 827 826 824 822 821 819 818 817 818 819 817 810 803 803 796 793 783 785 785 786 775 778 776 779 779 781 789 791 790
848 849 849 849 849 847 845 842 840 838 837 837 837 838 836 828 827 825 824 819 818 817 816 815 816 817 814 814 812 799 789 787 783 778 781 780 772 768 773 777 777 777 781 786 790
847 847 848 848 848 846 842 839 837 838 837 837 837 840 833 833 828 824 822 820 818 816 815 814 816 817 813 811 805 799 789 781 783 780 774 771 769 770 771 773 773 775 777 780 785
846 846 847 848 847 845 842 838 840 842 840 844 844 841 837 831 827 824 821 819 818 818 822 819 823 822 813 808 806 801 794 794 789 787 789 771 764 763 767 770 770 772 772 774 778
845 846 846 847 847 845 843 845 851 854 851 843 842 840 836 834 832 825 822 823 821 824 820 824 821 808 803 804 807 809 803 789 787 788 795 787 776 779 759 756 758 765 769 769 775
845 846 847 847 848 846 846 849 850 851 855 845 840 838 836 835 832 826 822 821 822 826 823 821 806 803 806 804 804 801 803 798 795 788 787 788 779 771 759 750 752 755 759 767 768
845 847 846 847 849 849 848 849 850 851 876 851 842 838 836 832 833 823 820 822 821 821 821 819 803 802 804 806 803 801 791 792 790 787 780 779 763 755 748 743 750 751 755 760 761
845 848 847 847 847 850 850 849 849 852 893 850 847 839 838 838 835 823 821 820 821 821 823 810 801 798 799 795 793 791 786 792 793 787 781 776 776 745 739 740 738 743 744 748 754
846 848 849 848 849 850 849 848 850 877 890 867 853 851 845 841 837 828 823 820 817 818 813 806 798 796 788 784 788 789 789 787 789 786 770 760 763 736 730 727 732 734 739 744 754
846 847 848 849 850 848 848 850 878 885 876 873 864 857 856 849 840 835 832 830 828 823 827 804 793 785 782 787 785 786 788 775 773 759 764 743 748 715 710 709 709 719 731 740 750
847 848 849 850 849 848 848 865 890 929 919 873 865 864 861 854 844 841 836 836 826 820 812 807 809 780 786 785 782 783 781 764 757 750 751 745 727 703 720 716 698 703 722 737 750
847 848 849 851 850 849 856 898 892 909 885 870 868 891 885 860 858 847 844 836 823 826 818 807 797 773 778 784 785 777 776 763 768 769 768 738 726 708 712 709 697 712 726 736 745
846 849 851 852 850 849 870 877 887 876 865 867 875 895 889 885 864 856 851 834 827 822 821 809 791 776 776 782 780 783 777 751 754 772 756 728 720 716 736 729 710 717 725 735 745
846 853 852 851 850 858 884 900 884 869 867 870 875 873 877 869 873 877 862 836 826 822 818 813 798 779 776 768 767 774 763 755 747 750 744 732 722 745 742 736 724 723 733 739 748
845 864 852 851 868 897 890 886 867 865 864 865 865 862 862 866 876 868 853 840 827 826 822 812 805 786 776 770 767 770 763 756 737 736 734 731 720 737 737 726 730 736 742 747 753
851 858 853 851 880 892 889 870 864 863 866 863 865 860 862 863 859 867 848 829 829 826 820 814 806 796 773 777 767 759 752 746 744 735 734 719 723 742 738 733 737 742 747 752 757
848 865 860 858 866 870 890 882 871 861 862 859 860 862 863 859 854 854 844 831 827 824 818 814 799 796 786 780 778 764 754 754 745 737 736 736 741 746 743 743 746 748 752 756 758
846 862 860 876 865 866 866 869 868 874 862 858 857 862 866 860 864 857 850 840 827 825 824 817 805 794 787 786 780 770 761 754 749 744 739 744 743 748 745 746 747 751 754 758 763
844 853 859 863 860 860 867 871 866 873 862 859 862 854 859 856 851 846 851 848 841 830 826 821 804 800 793 779 780 774 760 758 758 757 750 749 751 755 754 753 755 755 758 763 767
832 838 843 858 859 864 868 868 863 860 855 852 855 857 857 851 850 847 846 843 842 840 833 826 821 810 792 788 783 781 768 766 765 755 754 749 749 754 751 757 757 760 762 766 770